Location: Newark
(13.6797°N, 8.5297°E)
Time: 18:02:06
(UTC+00:00)

Courier 1B Rocket - Pass Details

Date: 25 January 2020
Orbit: 920 x 1202 km, 28.2° (Epoch: 22 February)

Event Time Altitude Azimuth Distance (km) Brightness Sun altitude
Rises 08:51:46 0° 246° (WSW) 4,074 8.0 37.6°
Reaches altitude 10° 08:54:40 10° 247° (WSW) 3,091 7.5 38.1°
Maximum altitude 09:02:22 81° 334° (NNW) 1,147 6.0 39.6°
Drops below altitude 10° 09:09:36 10° 61° (ENE) 2,912 7.8 40.9°
Sets 09:12:16 0° 63° (ENE) 3,826 8.3 41.4°
